Weather History for San Angelo, TX

Change the Weather History Date:

Tuesday, March 25, 2014

  Actual Average Record
Temperature  
Mean Temperature 55 °F 60 °F  
Max Temperature 70 °F 74 °F 93 °F (2011)
Min Temperature 40 °F 47 °F 25 °F (1955)
Degree Days  
Heating Degree Days 10 6  
Month to date heating degree days 268 224  
Since 1 July heating degree days 2388 2185  
Cooling Degree Days 0 2  
Month to date cooling degree days 28 24  
Year to date cooling degree days 31 29  
Growing Degree Days 4 (Base 50)    
Moisture  
Dew Point 34 °F    
Average Humidity 50    
Maximum Humidity 71    
Minimum Humidity 28    
Precipitation  
Precipitation 0.00 in 0.05 in 1.82 in (1924)
Month to date precipitation 0.04 1.23  
Year to date precipitation 0.10 3.51  
Snow  
Snow 0.00 in 0.00 in T in (1949)
Month to date snowfall T 0.1  
Since 1 July snowfall 1.6 2.2  
Snow Depth 0.00 in    
Sea Level Pressure  
Sea Level Pressure 30.20 in    
Wind  
Wind Speed 11 mph (East)    
Max Wind Speed 20 mph    
Max Gust Speed 27 mph    
Visibility 10 miles    
Events      
T = Trace of Precipitation, MM = Missing Value Source: NWS Daily Summary

Daily Weather History Graph

Daily Weather History Graph

Search for Another Location

Airport:

Trip Planner

Search our weather history database for the weather conditions in past years. The results will help you decide how hot, cold, wet, or windy it might be!

Date:

Astronomy

Mar. 25, 2014 Rise Set
Actual Time 7:39 AM CDT 7:56 PM CDT
Civil Twilight 7:15 AM CDT 8:21 PM CDT
Nautical Twilight 6:46 AM CDT 8:49 PM CDT
Astronomical Twilight 6:18 AM CDT 9:18 PM CDT
Moon 3:43 AM CDT (3/25) 2:47 PM CDT (3/25)
Length of Visible Light 13h 05m
Length of Day
12h 17m
Waning Crescent, 32% of the Moon is Illuminated
Mar 25
Waning Crescent
Mar 30
New
Apr 7
First Quarter
Apr 15
Full
Apr 22
Last Quarter

Hourly Weather History & Observations

Time (CDT) Temp. Windchill Dew Point Humidity Pressure Visibility Wind Dir Wind Speed Gust Speed Precip Events Conditions
12:51 AM 51.1 °F - 43.0 °F 74% 30.14 in 10.0 mi NE 5.8 mph - N/A   Clear
1:51 AM 48.0 °F - 39.9 °F 74% 30.16 in 10.0 mi NE 8.1 mph - N/A   Clear
2:51 AM 50.0 °F - 30.9 °F 48% 30.16 in 10.0 mi NNE 11.5 mph - N/A   Clear
3:51 AM 48.9 °F - 28.0 °F 44% 30.17 in 10.0 mi NE 10.4 mph - N/A   Clear
4:51 AM 45.0 °F 42.6 °F 27.0 °F 49% 30.19 in 10.0 mi East 4.6 mph - N/A   Clear
5:51 AM 41.0 °F - 27.0 °F 57% 30.23 in 10.0 mi Calm Calm - N/A   Clear
6:51 AM 41.0 °F 35.8 °F 28.0 °F 60% 30.24 in 10.0 mi ENE 8.1 mph - N/A   Clear
7:51 AM 42.1 °F 35.7 °F 28.9 °F 60% 30.28 in 10.0 mi NE 11.5 mph - N/A   Clear
8:51 AM 45.0 °F 38.2 °F 28.9 °F 53% 30.31 in 10.0 mi NE 15.0 mph - N/A   Clear
9:51 AM 46.9 °F - 30.0 °F 52% 30.34 in 10.0 mi NE 13.8 mph - N/A   Clear
10:51 AM 50.0 °F - 32.0 °F 50% 30.34 in 10.0 mi East 15.0 mph - N/A   Clear
11:51 AM 55.9 °F - 34.0 °F 44% 30.34 in 10.0 mi ENE 11.5 mph 20.7 mph N/A   Clear
12:51 PM 60.1 °F - 36.0 °F 41% 30.30 in 10.0 mi ENE 8.1 mph - N/A   Clear
1:51 PM 63.0 °F - 37.9 °F 40% 30.26 in 10.0 mi East 12.7 mph - N/A   Clear
2:51 PM 64.9 °F - 36.0 °F 34% 30.22 in 10.0 mi East 10.4 mph - N/A   Clear
3:51 PM 68.0 °F - 37.0 °F 32% 30.17 in 10.0 mi East 13.8 mph 21.9 mph N/A   Clear
4:46 PM 69.8 °F - 35.6 °F 28% 30.16 in 10.0 mi ESE 8.1 mph 23.0 mph N/A   Clear
4:51 PM 69.1 °F - 36.0 °F 30% 30.14 in 10.0 mi East 11.5 mph - N/A   Clear
5:51 PM 69.1 °F - 36.0 °F 30% 30.12 in 10.0 mi SE 12.7 mph 21.9 mph N/A   Clear
6:51 PM 69.1 °F - 35.1 °F 29% 30.10 in 10.0 mi ESE 17.3 mph - N/A   Clear
7:51 PM 64.9 °F - 35.1 °F 33% 30.10 in 10.0 mi ESE 16.1 mph - N/A   Clear
8:51 PM 60.1 °F - 34.0 °F 38% 30.10 in 10.0 mi ESE 12.7 mph - N/A   Clear
9:51 PM 57.9 °F - 33.1 °F 39% 30.11 in 10.0 mi ESE 15.0 mph - N/A   Clear
10:51 PM 55.9 °F - 33.1 °F 42% 30.13 in 10.0 mi ESE 12.7 mph - N/A   Clear
11:51 PM 53.1 °F - 32.0 °F 45% 30.11 in 10.0 mi East 6.9 mph - N/A   Partly Cloudy